Track GLOBALSTAR M083 now! 10-day predictions GLOBALSTAR M083 is classified as:
1 37739U 11033A 23272.14139144 -.00000065 00000-0 21484-3 0 9994 2 37739 51.9843 153.6823 0000516 65.3541 99.5771 12.62269499568024